STARLINK-4631

operational
NORAD ID: 53786 Int'l Des: 2022-111 Owner: SPXS Country: US Constellation: starlink
LEOCIRCULAR

About STARLINK-4631

Description loading...

Live Position

Loading 3D Globe...

Upcoming Passes

Altitude History

Altitude vs Time

uPlot chart will show altitude changes over time

Two-Line Element Set

1 53786U 22111P 25235.46329476 .15270426 12732-4 10858-3 0 9995
2 53786 53.2019 31.1000 0006933 284.3758 75.6527 16.52703317164518
Epoch: Aug 23, 2025 • Age: 400 hours

Current Status

Position data unavailable
Launch Date Sep 11, 2022
Age 2.9 years
Decay Date Aug 23, 2025
Type internet

Technical Details

Classification Payload
Mass 305.00 kg
Dry Mass 290.00 kg
Total Mass 305.00 kg
Length 0.20 m
Diameter 2.80 m
Span 9.00 m
Shape Box + pan
Manufacturer SPXS
Bus Type Starlink
Phase Status Reentered
Owner/State SPXS/US

Large Constellations

Loading constellations...